Weather in Lázaro Cárdenas

Mexico     17°57′06″N   102°11′37″W
temp.,
°C
wind,
m/s
gust,
m/s
humid.,
%
clouds,
%
prec.,
mm/h
press.,
hPa
HPBL,
m
18 may, tue
tue1801:00+26w13742 0.0 1012387
04:00+25nw117624 0.0 1011309
07:00+24n228011 0.0 1012100
10:00+28sw01590 0.0 1013749
13:00+30ssw53520 0.0 10121046
16:00+30sw65480 0.0 1010921
19:00+29wsw665093 0.0 1009847
22:00+25wsw24640 0.0 1011372
19 may, wed
wed1901:00+25w23660 0.0 1012443
04:00+23nnw22710 0.0 1011276
07:00+22n23770 0.0 1012105
10:00+28wnw11530 0.0 1012697
13:00+29ssw53460 0.0 10111004
16:00+30sw65460 0.0 1009877
19:00+28wsw55510 0.0 1008856
22:00+25w24670 0.0 1010360
20 may, thu
thu2001:00+23nw12720 0.0 1011399
04:00+22n22785 0.0 1010102
07:00+22nne22810 0.0 101089
10:00+27nw01550 0.0 1011613
13:00+29ssw53510 0.0 1010953
16:00+29sw54520 0.0 1008846
19:00+28wsw55550 0.0 1008754
22:00+24wsw23680 0.0 1010282
21 may, fri
fri2101:00+23nw23720 0.0 1012356
04:00+22n23790 0.0 101193
07:00+21n22790 0.0 101289
10:00+28wnw01500 0.0 1013550
13:00+30ssw42420 0.0 1011950
16:00+30sw54450 0.0 1009734
19:00+28sw55490 0.0 1009672
22:00+25wsw23654 0.0 1012300
22 may, sat
sat2201:00+24nnw22715 0.0 1014128
04:00+22nne22735 0.0 101268
07:00+22nne22650 0.0 101276
10:00+29se01390 0.0 1013394
13:00+31sw42360 0.0 1012888
16:00+31sw53380 0.0 1010702
19:00+29sw444592 0.0 1009552
22:00+25wsw126131 0.0 1012196